| time (UTC) | temp F | wind direction | speed MPH | gust MPH | rain 1hr in | rain 24hr in | rain mn in | humidity % | barometer mb |
| 20260507210018 | 65 | 336 | 2.0 | 5.0 | 0.00 | 0.00 | 0.00 | 25 | 1004.8 |
| 20260507205022 | 65 | 241 | 3.0 | 6.0 | 0.00 | 0.00 | 0.00 | 25 | 1004.7 |
| 20260507204019 | 66 | 300 | 6.0 | 12.0 | 0.00 | 0.00 | 0.00 | 25 | 1004.7 |
| 20260507203016 | 65 | 341 | 2.0 | 5.0 | 0.00 | 0.00 | 0.00 | 25 | 1004.6 |
| 20260507202051 | 65 | 237 | 3.0 | 11.0 | 0.00 | 0.00 | 0.00 | 24 | 1004.8 |
| 20260507201017 | 66 | 254 | 5.0 | 10.0 | 0.00 | 0.00 | 0.00 | 24 | 1004.7 |
| 20260507200020 | 66 | 250 | 4.0 | 10.0 | 0.00 | 0.00 | 0.00 | 25 | 1004.9 |
| 20260507195023 | 65 | 239 | 5.0 | 9.0 | 0.00 | 0.00 | 0.00 | 26 | 1005.0 |
| 20260507194046 | 65 | 266 | 5.0 | 9.0 | 0.00 | 0.00 | 0.00 | 25 | 1005.1 |
| 20260507193030 | 66 | 300 | 4.0 | 7.0 | 0.00 | 0.00 | 0.00 | 26 | 1005.1 |
| 20260507192035 | 65 | 347 | 4.0 | 7.0 | 0.00 | 0.00 | 0.00 | 25 | 1005.2 |
| 20260507191018 | 65 | 277 | 4.0 | 7.0 | 0.00 | 0.00 | 0.00 | 28 | 1005.3 |
| 20260507190021 | 62 | 20 | 1.0 | 4.0 | 0.00 | 0.00 | 0.00 | 30 | 1005.5 |
| 20260507185025 | 64 | 275 | 5.0 | 7.0 | 0.00 | 0.00 | 0.00 | 29 | 1005.5 |
| 20260507184028 | 65 | 4 | 4.0 | 7.0 | 0.00 | 0.00 | 0.00 | 29 | 1005.6 |
| 20260507183031 | 65 | 214 | 5.0 | 10.0 | 0.00 | 0.00 | 0.00 | 28 | 1005.6 |
| 20260507182036 | 65 | 270 | 3.0 | 8.0 | 0.00 | 0.00 | 0.00 | 30 | 1005.7 |
| 20260507181020 | 64 | 306 | 3.0 | 8.0 | 0.00 | 0.00 | 0.00 | 29 | 1005.8 |
| 20260507180043 | 65 | 312 | 4.0 | 7.0 | 0.00 | 0.00 | 0.00 | 30 | 1005.5 |
| 20260507175026 | 64 | 300 | 5.0 | 10.0 | 0.00 | 0.00 | 0.00 | 30 | 1005.6 |
| 20260507174029 | 64 | 233 | 4.0 | 9.0 | 0.00 | 0.00 | 0.00 | 31 | 1005.6 |
| 20260507173014 | 64 | 221 | 5.0 | 9.0 | 0.00 | 0.00 | 0.00 | 30 | 1005.6 |
| 20260507172018 | 64 | 200 | 6.0 | 9.0 | 0.00 | 0.00 | 0.00 | 31 | 1005.7 |
| 20260507171021 | 64 | 199 | 2.0 | 6.0 | 0.00 | 0.00 | 0.00 | 31 | 1005.9 |
| 20260507170018 | 64 | 29 | 3.0 | 6.0 | 0.00 | 0.00 | 0.00 | 30 | 1006.2 |
| 20260507165036 | 63 | 265 | 4.0 | 8.0 | 0.00 | 0.00 | 0.00 | 32 | 1006.1 |
| 20260507164031 | 62 | 320 | 4.0 | 11.0 | 0.00 | 0.00 | 0.00 | 33 | 1006.1 |
| 20260507163016 | 63 | 219 | 4.0 | 8.0 | 0.00 | 0.00 | 0.00 | 34 | 1006.1 |
| 20260507162020 | 63 | 10 | 1.0 | 5.0 | 0.00 | 0.00 | 0.00 | 37 | 1006.3 |
| 20260507161023 | 61 | 239 | 4.0 | 8.0 | 0.00 | 0.00 | 0.00 | 40 | 1006.5 |
| 20260507160026 | 61 | 268 | 4.0 | 7.0 | 0.00 | 0.00 | 0.00 | 45 | 1006.5 |
| 20260507155029 | 60 | 257 | 4.0 | 8.0 | 0.00 | 0.00 | 0.00 | 46 | 1006.6 |
| 20260507154032 | 58 | 320 | 1.0 | 4.0 | 0.00 | 0.00 | 0.00 | 50 | 1006.6 |
| 20260507153038 | 61 | 315 | 0.0 | 2.0 | 0.00 | 0.00 | 0.00 | 47 | 1006.7 |
| 20260507152021 | 59 | 248 | 2.0 | 6.0 | 0.00 | 0.00 | 0.00 | 49 | 1006.9 |
| 20260507151024 | 58 | 257 | 4.0 | 8.0 | 0.00 | 0.00 | 0.00 | 48 | 1006.9 |
| 20260507150027 | 58 | 247 | 5.0 | 8.0 | 0.00 | 0.00 | 0.00 | 49 | 1007.0 |
| 20260507145031 | 59 | 221 | 1.0 | 4.0 | 0.00 | 0.00 | 0.00 | 49 | 1007.0 |
| 20260507144016 | 60 | 220 | 2.0 | 6.0 | 0.00 | 0.00 | 0.00 | 46 | 1006.9 |
| 20260507143059 | 60 | 325 | 2.0 | 8.0 | 0.00 | 0.00 | 0.00 | 47 | 1006.9 |
| 20260507142023 | 58 | 21 | 3.0 | 8.0 | 0.00 | 0.00 | 0.00 | 46 | 1006.9 |
| 20260507141026 | 58 | 10 | 1.0 | 4.0 | 0.00 | 0.00 | 0.00 | 48 | 1006.9 |
| 20260507140029 | 58 | 334 | 4.0 | 7.0 | 0.00 | 0.00 | 0.00 | 49 | 1006.8 |
| 20260507135026 | 57 | 1 | 2.0 | 5.0 | 0.00 | 0.00 | 0.00 | 48 | 1006.9 |
| 20260507134018 | 56 | 27 | 1.0 | 4.0 | 0.00 | 0.00 | 0.00 | 52 | 1007.0 |
| 20260507133021 | 55 | 260 | 2.0 | 5.0 | 0.00 | 0.00 | 0.00 | 53 | 1007.1 |
| 20260507132018 | 55 | 206 | 1.0 | 4.0 | 0.00 | 0.00 | 0.00 | 55 | 1007.3 |
| 20260507131035 | 54 | 237 | 1.0 | 3.0 | 0.00 | 0.00 | 0.00 | 56 | 1007.3 |
| 20260507130030 | 53 | 230 | 1.0 | 4.0 | 0.00 | 0.00 | 0.00 | 58 | 1007.4 |
| 20260507125016 | 53 | 180 | 2.0 | 6.0 | 0.00 | 0.00 | 0.00 | 57 | 1007.4 |
| 20260507124039 | 52 | 180 | 1.0 | 4.0 | 0.00 | 0.00 | 0.00 | 60 | 1007.5 |
| 20260507123042 | 51 | 255 | 1.0 | 5.0 | 0.00 | 0.00 | 0.00 | 64 | 1007.6 |
| 20260507122025 | 51 | 355 | 1.0 | 5.0 | 0.00 | 0.00 | 0.00 | 66 | 1007.6 |
| 20260507121109 | 50 | 205 | 1.0 | 4.0 | 0.00 | 0.00 | 0.00 | 66 | 1007.6 |
| 20260507120032 | 51 | 310 | 1.0 | 6.0 | 0.00 | 0.00 | 0.00 | 66 | 1007.5 |
| 20260507115018 | 51 | 228 | 1.0 | 5.0 | 0.00 | 0.00 | 0.00 | 66 | 1007.3 |
| 20260507114021 | 50 | 0.0 | 2.0 | 0.00 | 0.00 | 0.00 | 69 | 1007.2 | |
| 20260507113044 | 49 | 0.0 | 0.0 | 0.00 | 0.00 | 0.00 | 69 | 1007.1 | |
| 20260507112027 | 49 | 0.0 | 0.0 | 0.00 | 0.00 | 0.00 | 69 | 1007.2 | |
| 20260507111030 | 49 | 315 | 0.0 | 2.0 | 0.00 | 0.00 | 0.00 | 69 | 1007.4 |
| 20260507110016 | 48 | 0.0 | 1.0 | 0.00 | 0.00 | 0.00 | 70 | 1007.1 | |
| 20260507105019 | 48 | 0.0 | 0.0 | 0.00 | 0.00 | 0.00 | 70 | 1006.9 | |
| 20260507104022 | 48 | 293 | 1.0 | 4.0 | 0.00 | 0.00 | 0.00 | 70 | 1006.8 |
| 20260507103025 | 48 | 0.0 | 0.0 | 0.00 | 0.00 | 0.00 | 71 | 1006.8 | |
| 20260507102029 | 48 | 0.0 | 0.0 | 0.00 | 0.00 | 0.00 | 72 | 1007.0 | |
| 20260507101046 | 48 | 0.0 | 0.0 | 0.00 | 0.00 | 0.00 | 72 | 1006.7 | |
| 20260507100017 | 48 | 279 | 1.0 | 5.0 | 0.00 | 0.00 | 0.00 | 73 | 1007.0 |
| 20260507095020 | 48 | 293 | 1.0 | 4.0 | 0.00 | 0.00 | 0.00 | 74 | 1006.9 |
| 20260507094038 | 48 | 0.0 | 0.0 | 0.00 | 0.00 | 0.00 | 75 | 1006.8 | |
| 20260507093015 | 48 | 0.0 | 0.0 | 0.00 | 0.00 | 0.00 | 76 | 1006.7 | |
| 20260507092030 | 48 | 0.0 | 0.0 | 0.00 | 0.00 | 0.00 | 76 | 1007.1 | |
| 20260507091016 | 48 | 0.0 | 0.0 | 0.00 | 0.00 | 0.00 | 76 | 1006.6 | |
| 20260507090019 | 48 | 0.0 | 0.0 | 0.00 | 0.00 | 0.00 | 76 | 1006.7 | |
| 20260507085022 | 48 | 0.0 | 0.0 | 0.00 | 0.00 | 0.00 | 76 | 1006.7 | |
| 20260507084026 | 48 | 270 | 0.0 | 3.0 | 0.00 | 0.00 | 0.00 | 76 | 1006.6 |
| 20260507083029 | 48 | 0.0 | 0.0 | 0.00 | 0.00 | 0.00 | 76 | 1006.4 | |
| 20260507082032 | 49 | 304 | 1.0 | 3.0 | 0.00 | 0.00 | 0.00 | 75 | 1006.6 |
| 20260507081017 | 49 | 0.0 | 0.0 | 0.00 | 0.00 | 0.00 | 74 | 1006.4 | |
| 20260507080021 | 50 | 248 | 0.0 | 2.0 | 0.00 | 0.00 | 0.00 | 73 | 1006.7 |
| 20260507075024 | 50 | 273 | 2.0 | 5.0 | 0.00 | 0.00 | 0.00 | 73 | 1006.6 |
| 20260507074047 | 50 | 0.0 | 2.0 | 0.00 | 0.00 | 0.00 | 74 | 1006.4 | |
| 20260507073050 | 50 | 0.0 | 0.0 | 0.00 | 0.00 | 0.00 | 74 | 1006.2 | |
| 20260507072016 | 50 | 220 | 1.0 | 6.0 | 0.00 | 0.00 | 0.00 | 75 | 1006.1 |
| 20260507071019 | 51 | 333 | 1.0 | 4.0 | 0.00 | 0.00 | 0.00 | 75 | 1006.2 |
| 20260507070022 | 51 | 0.0 | 1.0 | 0.00 | 0.00 | 0.00 | 75 | 1006.0 | |
| 20260507065026 | 51 | 0 | 1.0 | 5.0 | 0.00 | 0.00 | 0.00 | 75 | 1006.0 |
| 20260507064029 | 51 | 296 | 1.0 | 5.0 | 0.00 | 0.00 | 0.00 | 74 | 1005.9 |
| 20260507063026 | 51 | 225 | 1.0 | 4.0 | 0.00 | 0.00 | 0.00 | 74 | 1005.6 |
| 20260507062017 | 51 | 0.0 | 0.0 | 0.00 | 0.00 | 0.00 | 75 | 1005.9 | |
| 20260507061021 | 51 | 315 | 0.0 | 1.0 | 0.00 | 0.00 | 0.00 | 75 | 1006.0 |
| 20260507060018 | 51 | 0.0 | 2.0 | 0.00 | 0.00 | 0.00 | 77 | 1006.2 | |
| 20260507055015 | 51 | 266 | 2.0 | 7.0 | 0.00 | 0.00 | 0.00 | 79 | 1006.4 |
| 20260507054051 | 52 | 248 | 0.0 | 3.0 | 0.00 | 0.00 | 0.00 | 80 | 1006.3 |
| 20260507053016 | 52 | 0.0 | 0.0 | 0.00 | 0.00 | 0.00 | 80 | 1006.1 | |
| 20260507052019 | 52 | 203 | 0.0 | 2.0 | 0.00 | 0.00 | 0.00 | 80 | 1006.5 |
| 20260507051043 | 52 | 158 | 0.0 | 2.0 | 0.00 | 0.00 | 0.00 | 80 | 1006.1 |
| 20260507050046 | 52 | 45 | 1.0 | 4.0 | 0.00 | 0.00 | 0.00 | 80 | 1006.1 |
| 20260507045029 | 52 | 0.0 | 0.0 | 0.00 | 0.00 | 0.00 | 80 | 1006.0 | |
| 20260507044032 | 53 | 270 | 0.0 | 2.0 | 0.00 | 0.00 | 0.00 | 80 | 1006.0 |
| 20260507043038 | 53 | 315 | 0.0 | 2.0 | 0.00 | 0.00 | 0.00 | 80 | 1006.1 |
| 20260507042041 | 54 | 338 | 0.0 | 1.0 | 0.00 | 0.00 | 0.00 | 81 | 1006.4 |
| 20260507041024 | 54 | 293 | 0.0 | 1.0 | 0.00 | 0.00 | 0.00 | 81 | 1006.2 |
| 20260507040048 | 55 | 0.0 | 2.0 | 0.00 | 0.00 | 0.00 | 81 | 1005.9 | |
| 20260507035031 | 57 | 0.0 | 0.0 | 0.00 | 0.00 | 0.00 | 82 | 1005.5 | |
| 20260507034016 | 57 | 0.0 | 2.0 | 0.00 | 0.00 | 0.00 | 83 | 1005.3 | |
| 20260507033019 | 58 | 323 | 2.0 | 7.0 | 0.00 | 0.00 | 0.00 | 83 | 1005.2 |
| 20260507032022 | 58 | 274 | 3.0 | 9.0 | 0.00 | 0.00 | 0.00 | 83 | 1005.2 |
| 20260507031026 | 59 | 252 | 4.0 | 9.0 | 0.00 | 0.00 | 0.00 | 83 | 1005.0 |
| 20260507030029 | 59 | 225 | 0.0 | 2.0 | 0.00 | 0.00 | 0.00 | 82 | 1004.8 |
| 20260507025026 | 59 | 270 | 0.0 | 2.0 | 0.00 | 0.00 | 0.00 | 82 | 1004.8 |
| 20260507024018 | 59 | 264 | 1.0 | 5.0 | 0.00 | 0.00 | 0.00 | 82 | 1004.8 |
| 20260507023041 | 59 | 239 | 1.0 | 3.0 | 0.00 | 0.00 | 0.00 | 82 | 1004.7 |
| 20260507022018 | 59 | 0.0 | 0.0 | 0.00 | 0.00 | 0.00 | 82 | 1004.7 | |
| 20260507021116 | 59 | 0.0 | 0.0 | 0.00 | 0.00 | 0.00 | 82 | 1004.6 | |
| 20260507020031 | 59 | 180 | 0.0 | 4.0 | 0.00 | 0.00 | 0.00 | 82 | 1004.8 |
| 20260507015016 | 59 | 225 | 0.0 | 4.0 | 0.00 | 0.00 | 0.00 | 82 | 1004.7 |
| 20260507014019 | 59 | 0.0 | 0.0 | 0.00 | 0.00 | 0.00 | 82 | 1004.8 | |
| 20260507013103 | 59 | 113 | 0.0 | 1.0 | 0.00 | 0.00 | 0.00 | 82 | 1005.0 |
| 20260507012026 | 59 | 236 | 1.0 | 8.0 | 0.00 | 0.00 | 0.00 | 82 | 1004.9 |
| 20260507010033 | 59 | 225 | 0.0 | 1.0 | 0.00 | 0.00 | 0.00 | 82 | 1004.9 |
| 20260507005018 | 59 | 0.0 | 0.0 | 0.00 | 0.00 | 0.00 | 82 | 1004.7 | |
| 20260507004021 | 59 | 187 | 2.0 | 7.0 | 0.00 | 0.00 | 0.00 | 82 | 1004.8 |
| 20260507003025 | 60 | 178 | 2.0 | 6.0 | 0.00 | 0.00 | 0.00 | 82 | 1005.0 |
| 20260507002028 | 60 | 211 | 2.0 | 4.0 | 0.00 | 0.00 | 0.00 | 82 | 1004.7 |
| 20260507001031 | 60 | 177 | 1.0 | 5.0 | 0.00 | 0.00 | 0.00 | 82 | 1004.7 |
| 20260507000016 | 60 | 265 | 1.0 | 7.0 | 0.00 | 0.00 | 0.00 | 82 | 1004.7 |
| 20260506235020 | 60 | 225 | 0.0 | 4.0 | 0.00 | 0.00 | 0.00 | 82 | 1004.6 |
| 20260506234023 | 60 | 158 | 1.0 | 6.0 | 0.00 | 0.00 | 0.00 | 81 | 1004.6 |
| 20260506233046 | 60 | 162 | 1.0 | 5.0 | 0.00 | 0.00 | 0.00 | 81 | 1004.6 |
| 20260506232050 | 60 | 135 | 1.0 | 6.0 | 0.00 | 0.00 | 0.00 | 81 | 1004.8 |
| 20260506231015 | 60 | 90 | 0.0 | 3.0 | 0.00 | 0.00 | 0.00 | 81 | 1005.0 |
| 20260506230038 | 60 | 146 | 0.0 | 2.0 | 0.00 | 0.00 | 0.00 | 80 | 1004.9 |
| 20260506225041 | 60 | 0.0 | 0.0 | 0.00 | 0.00 | 0.00 | 80 | 1004.8 | |
| 20260506224019 | 60 | 210 | 1.0 | 8.0 | 0.00 | 0.00 | 0.00 | 79 | 1004.9 |
| 20260506223016 | 60 | 212 | 1.0 | 2.0 | 0.00 | 0.00 | 0.00 | 79 | 1005.0 |
| 20260506222031 | 60 | 0.0 | 3.0 | 0.00 | 0.00 | 0.00 | 78 | 1005.2 | |
| 20260506221016 | 60 | 203 | 0.0 | 3.0 | 0.00 | 0.00 | 0.00 | 78 | 1005.3 |
| 20260506220020 | 61 | 158 | 0.0 | 2.0 | 0.00 | 0.00 | 0.00 | 78 | 1005.2 |
| 20260506215024 | 61 | 0.0 | 2.0 | 0.00 | 0.00 | 0.00 | 78 | 1005.4 | |
| 20260506214027 | 61 | 98 | 2.0 | 9.0 | 0.00 | 0.00 | 0.00 | 78 | 1005.5 |
| 20260506213030 | 61 | 0.0 | 2.0 | 0.00 | 0.00 | 0.00 | 77 | 1005.5 |